Change the Weather History Date:

Thursday, July 4, 2013

  Actual Average Record
Temperature  
Mean Temperature 78 °F -  
Max Temperature 90 °F 80 °F 100 °F (2012)
Min Temperature 66 °F 61 °F 55 °F (2008)
Cooling Degree Days 12    
Growing Degree Days 28 (Base 50)    
Moisture  
Dew Point 56 °F    
Average Humidity 50    
Maximum Humidity 70    
Minimum Humidity 29    
Precipitation  
Precipitation 0.00 in - - ()
Sea Level Pressure  
Sea Level Pressure 29.90 in    
Wind  
Wind Speed 8 mph (South)    
Max Wind Speed 17 mph    
Max Gust Speed 22 mph    
Visibility 10 miles    
Events      
Averages and records for this station are not official NWS values.
T = Trace of Precipitation, MM = Missing Value Source: NWS Daily Summary

Daily Weather History Graph

Daily Weather History Graph

Search for Another Location

Airport or City:

Trip Planner

Search our weather history database for the weather conditions in past years. The results will help you decide how hot, cold, wet, or windy it might be!

Date:

Astronomy

Jul. 04, 2013 Rise Set
Actual Time 5:33 AM CDT 9:02 PM CDT
Civil Twilight 4:56 AM CDT 9:39 PM CDT
Nautical Twilight 4:08 AM CDT 10:27 PM CDT
Astronomical Twilight 3:06 AM CDT 11:29 PM CDT
Moon 2:54 AM CDT (7/4) 6:04 PM CDT (7/4)
Length of Visible Light 16h 42m
Length of Day
15h 29m
Waning Crescent, 11% of the Moon is Illuminated
Jul 4
Waning Crescent
Jul 8
New
Jul 15
First Quarter
Jul 22
Full
Jul 29
Last Quarter

Hourly Weather History & Observations

Time (CDT) Temp. Heat Index Dew Point Humidity Pressure Visibility Wind Dir Wind Speed Gust Speed Precip Events Conditions
12:53 AM 68.0 °F - 55.9 °F 65% 29.95 in 10.0 mi SE 5.8 mph - N/A   Clear
1:53 AM 66.9 °F - 55.9 °F 68% 29.94 in 10.0 mi SSE 3.5 mph - N/A   Clear
2:53 AM 66.9 °F - 55.9 °F 68% 29.94 in 10.0 mi SSE 4.6 mph - N/A   Clear
3:53 AM 66.9 °F - 55.9 °F 68% 29.93 in 10.0 mi South 8.1 mph - N/A   Clear
4:53 AM 66.9 °F - 55.9 °F 68% 29.94 in 10.0 mi South 9.2 mph - N/A   Mostly Cloudy
5:53 AM 66.0 °F - 55.9 °F 70% 29.94 in 10.0 mi South 8.1 mph - N/A   Clear
6:53 AM 66.9 °F - 57.0 °F 70% 29.94 in 10.0 mi SSW 9.2 mph - N/A   Partly Cloudy
7:53 AM 70.0 °F - 57.0 °F 63% 29.95 in 10.0 mi SSW 9.2 mph - N/A   Scattered Clouds
8:53 AM 72.0 °F - 59.0 °F 64% 29.95 in 10.0 mi SSW 5.8 mph - N/A   Partly Cloudy
9:53 AM 77.0 °F - 60.1 °F 56% 29.93 in 10.0 mi SSW 6.9 mph - N/A   Clear
10:53 AM 80.1 °F 80.7 °F 59.0 °F 48% 29.93 in 10.0 mi SSW 9.2 mph - N/A   Clear
11:53 AM 82.9 °F 83.3 °F 61.0 °F 47% 29.91 in 10.0 mi South 6.9 mph - N/A   Clear
12:53 PM 86.0 °F 85.4 °F 59.0 °F 40% 29.91 in 10.0 mi South 10.4 mph 18.4 mph N/A   Partly Cloudy
1:53 PM 88.0 °F 85.9 °F 54.0 °F 31% 29.89 in 10.0 mi SSW 12.7 mph 21.9 mph N/A   Clear
2:53 PM 89.1 °F 86.9 °F 54.0 °F 30% 29.87 in 10.0 mi South 11.5 mph 20.7 mph N/A   Clear
3:53 PM 89.1 °F 86.9 °F 54.0 °F 30% 29.87 in 10.0 mi SSE 17.3 mph 21.9 mph N/A   Clear
4:53 PM 89.1 °F 86.9 °F 54.0 °F 30% 29.86 in 10.0 mi South 11.5 mph 18.4 mph N/A   Partly Cloudy
5:53 PM 88.0 °F - 52.0 °F 29% 29.85 in 10.0 mi South 15.0 mph - N/A   Clear
6:53 PM 86.0 °F 84.2 °F 54.0 °F 33% 29.85 in 10.0 mi South 9.2 mph - N/A   Clear
7:53 PM 84.0 °F 82.6 °F 54.0 °F 35% 29.84 in 10.0 mi South 10.4 mph - N/A   Clear
8:53 PM 81.0 °F 80.7 °F 55.0 °F 41% 29.84 in 10.0 mi South 8.1 mph - N/A   Clear
9:53 PM 78.1 °F - 55.9 °F 46% 29.86 in 10.0 mi SSE 8.1 mph - N/A   Clear
10:53 PM 77.0 °F - 55.0 °F 47% 29.87 in 10.0 mi South 8.1 mph - N/A   Clear
11:53 PM 75.9 °F - 55.0 °F 48% 29.87 in 10.0 mi South 8.1 mph - N/A   Clear